Wind_Speed
11 8 7 5 4 3 2 3 3 3 3 4 5 6 7 8 8 8 8 8 8 8 7 7 7 6 6 6 6 6 6 6 5 5 5 4 4 3 3 4 4 5
13 10 8 7 6 5 3 2 3 2 1 2 3 4 5 6 7 7 7 8 8 8 8 8 8 8 8 8 8 8 8 8 8 7 7 6 5 5 4 4 3 3
14 12 10 9 8 7 6 5 4 2 2 3 2 2 2 3 4 5 5 6 6 7 7 7 8 8 8 8 9 10 10 11 11 11 10 9 9 8 7 6 6 5
16 14 13 11 11 11 10 9 8 7 6 6 6 5 3 2 1 1 3 4 4 4 4 5 5 6 7 8 9 10 11 12 12 12 12 12 12 12 11 10 10 9
17 16 15 15 15 16 16 14 13 12 11 10 10 10 7 5 4 3 2 2 3 3 3 3 3 3 4 6 7 8 10 11 11 12 13 13 13 13 13 13 13 12
19 18 18 20 21 21 20 19 16 15 15 14 14 13 10 8 7 7 5 5 4 3 4 5 4 4 4 4 5 6 7 8 9 11 11 12 13 13 13 12 12 12
21 21 23 24 25 25 24 23 20 17 18 18 17 16 14 12 11 10 9 9 8 6 5 6 6 7 7 7 7 7 8 8 9 10 10 11 12 12 13 12 12 11
25 26 27 27 27 28 26 24 22 20 19 20 20 19 18 16 14 13 13 12 11 11 9 9 8 8 9 10 10 11 11 12 12 12 12 13 13 13 14 14 14 14
28 29 28 28 29 29 27 25 25 24 23 23 23 21 20 20 18 16 15 14 14 14 14 13 12 12 12 12 13 14 15 16 17 17 16 16 17 17 16 15 16 17
30 30 28 28 29 29 29 28 28 27 26 25 24 23 22 22 20 18 17 17 17 17 17 16 16 16 15 14 15 17 18 19 20 21 21 20 20 20 20 19 18 19
31 30 28 27 28 30 32 32 32 32 31 28 26 25 24 24 22 20 20 20 20 20 20 21 20 19 18 17 17 18 19 20 21 23 24 24 23 23 23 22 22 22
32 29 26 25 27 28 31 31 31 31 30 29 30 31 30 27 24 24 25 26 25 24 24 24 23 22 21 19 18 19 20 21 22 24 25 26 25 24 24 23 23 24
35 31 27 29 31 31 32 31 30 31 33 32 31 32 33 28 23 24 27 27 25 25 25 25 25 25 25 23 22 20 21 23 24 26 27 28 28 28 27 25 24 24
39 37 33 34 36 36 36 34 33 38 41 36 28 24 24 22 20 20 22 21 20 22 24 26 28 28 27 28 27 24 24 25 26 27 29 30 31 31 31 30 27 26
35 38 37 37 37 37 38 37 37 38 39 36 29 22 18 17 16 16 15 15 17 19 22 25 27 28 26 27 29 28 29 29 28 28 29 31 32 33 34 33 31 31
29 32 34 34 35 35 35 34 35 33 32 30 27 23 22 22 23 23 20 19 19 20 23 25 28 28 26 25 26 29 31 32 30 29 29 30 32 34 36 35 33 35
24 26 28 26 25 25 25 24 24 24 23 23 22 22 24 25 26 27 26 25 24 24 28 31 31 30 27 26 27 30 32 33 33 31 31 30 31 33 36 36 36 38
23 24 24 22 19 19 21 21 20 19 19 20 21 22 23 23 24 26 26 28 29 30 33 36 35 31 29 29 29 31 33 34 33 32 32 32 33 34 36 37 38 39
25 24 23 23 23 24 25 24 22 22 22 23 24 25 25 26 27 27 27 28 30 32 34 36 34 32 30 31 31 32 33 33 32 32 33 35 36 35 35 37 39 41
23 24 25 27 30 31 31 29 28 28 28 28 28 29 29 30 30 29 28 28 30 32 34 33 33 32 31 31 31 31 32 32 32 34 35 35 34 34 35 36 39 41
21 22 23 25 26 27 28 28 29 30 30 30 29 29 30 30 30 30 29 30 32 35 35 33 32 32 31 30 30 30 30 30 32 35 37 35 33 33 35 36 38 41
21 21 22 22 23 23 24 24 25 26 27 28 28 29 29 29 29 29 29 30 32 34 33 32 31 31 31 30 29 28 28 30 34 37 38 36 33 33 35 36 39 40
22 22 23 24 25 26 26 27 27 28 28 29 28 28 28 28 28 29 29 30 31 30 29 27 27 28 30 29 29 28 29 32 35 35 35 34 33 33 34 35 38 39
25 25 26 27 28 29 29 29 29 29 28 27 26 24 24 25 27 28 29 30 31 29 26 25 25 26 28 30 30 30 30 31 32 31 32 32 32 33 34 35 36 37
28 28 28 28 29 29 29 29 29 28 27 27 26 24 24 24 26 28 30 31 31 29 27 26 25 26 28 29 29 29 29 28 28 28 29 30 31 32 34 35 36 37
30 31 31 31 31 30 29 28 28 28 28 29 29 28 26 26 26 29 31 32 31 30 30 28 26 26 27 29 30 30 28 26 26 27 28 29 31 33 35 35 36 37
Wind_Direction
244 250 254 245 229 214 180 150 133 117 109 102 91 80 74 71 68 67 69 71 72 73 73 71 68 63 58 55 50 51 51 51 50 42 34 27 14 355 333 315 299 289
235 234 239 238 228 222 227 212 162 142 128 127 113 91 74 65 60 56 58 64 66 67 68 68 67 64 60 56 53 50 48 48 48 45 40 35 30 25 15 5 354 343
231 230 231 233 239 238 241 254 242 221 259 261 220 149 109 63 54 50 43 51 60 64 66 64 62 62 58 53 49 44 40 38 36 34 32 28 26 24 19 15 11 5
229 231 232 231 242 248 248 256 259 254 254 254 251 229 195 210 280 31 24 23 34 46 59 62 58 55 52 46 41 37 32 29 26 23 21 19 18 17 14 13 11 6
227 231 234 234 241 249 250 251 252 256 254 248 251 246 224 224 244 244 262 309 337 351 359 17 30 29 33 31 26 25 20 17 16 13 12 11 9 9 8 8 6 4
226 230 234 236 241 246 248 248 249 257 260 255 253 251 240 234 239 243 246 251 260 284 309 317 322 326 334 348 354 358 359 358 359 359 359 359 359 360 360 360 -0 359
226 230 232 235 240 244 249 252 254 259 265 264 260 257 253 245 240 243 246 247 249 248 259 276 290 299 301 305 311 317 323 326 330 335 336 338 341 343 343 340 340 340
227 232 236 238 241 245 250 255 257 257 259 261 261 262 265 262 257 252 249 248 250 251 251 253 259 270 280 289 293 296 300 304 307 311 316 319 322 325 328 329 326 324
228 233 238 242 245 246 250 256 259 258 257 257 259 260 263 263 263 263 265 265 265 263 261 259 257 257 259 269 278 283 289 294 297 300 304 309 312 313 316 320 322 322
229 233 237 243 247 250 253 256 258 255 249 249 253 256 258 260 262 262 265 272 276 275 273 272 271 267 261 262 268 273 278 284 288 292 296 301 305 308 309 311 314 316
231 234 237 242 249 255 258 261 264 258 247 241 242 244 248 253 259 262 264 269 274 275 276 279 281 277 271 269 270 274 277 279 282 285 288 291 295 300 303 305 307 309
238 239 241 245 251 258 263 268 273 270 262 254 248 245 245 245 250 260 266 270 272 274 277 279 282 283 279 275 274 276 279 280 281 282 282 285 289 292 294 297 301 303
246 245 246 249 253 259 266 272 276 278 278 271 260 256 254 249 248 255 260 265 272 279 281 280 281 285 285 283 280 279 281 282 283 284 281 281 284 288 290 290 293 298
250 249 248 249 251 256 262 268 273 276 278 275 271 267 261 254 252 252 254 263 273 279 281 280 281 283 285 286 284 283 285 287 288 289 286 283 284 286 287 288 289 291
248 247 247 247 250 254 259 264 269 272 272 270 268 268 264 264 269 266 265 270 274 277 277 277 281 284 286 288 285 282 285 288 289 290 289 287 286 285 284 286 289 290
245 245 248 250 254 257 260 264 268 269 269 269 268 269 271 275 278 279 278 275 273 277 279 278 281 285 286 286 284 282 285 288 288 287 287 287 287 286 283 283 286 290
252 251 251 252 256 261 264 267 268 268 270 274 274 273 274 275 276 277 279 277 272 273 277 279 282 283 281 281 282 283 285 287 287 286 288 288 286 284 282 280 282 286
265 260 255 252 253 263 269 270 271 272 273 274 273 270 271 273 274 275 277 277 276 274 276 278 280 281 280 280 280 280 283 285 284 284 287 287 285 282 280 279 280 280
261 257 253 252 256 265 270 268 267 269 270 269 269 269 269 269 270 273 274 275 276 276 276 277 279 280 281 281 280 281 282 282 281 281 283 282 282 283 281 281 280 278
258 254 253 255 260 265 268 266 264 265 266 268 269 270 272 271 271 272 273 273 273 272 272 275 278 279 280 280 280 278 276 277 278 279 279 279 280 282 282 282 281 279
261 260 261 263 265 267 270 270 268 267 269 271 273 274 274 274 273 271 270 269 270 271 272 275 277 278 278 277 275 273 272 274 274 274 275 276 278 280 280 281 279 278
264 265 266 268 269 269 271 271 271 271 271 271 271 272 272 274 275 273 270 268 268 271 274 277 279 279 277 275 273 272 271 269 268 269 271 276 279 279 279 278 276 274
268 270 269 269 269 269 269 269 270 270 271 271 271 270 270 270 270 271 272 271 271 273 277 281 283 281 278 274 271 269 265 262 263 267 271 276 278 278 279 278 275 273
273 274 273 271 270 269 269 270 270 270 269 270 270 269 269 268 268 270 273 274 275 278 281 286 287 283 278 275 274 272 268 265 266 268 271 274 276 277 278 277 276 276
276 278 278 275 271 269 269 269 269 269 269 269 270 271 273 275 275 275 275 275 278 282 285 289 290 286 282 280 279 277 273 270 268 269 270 271 272 274 275 276 277 278
275 280 281 277 273 270 270 270 270 271 273 274 276 277 278 279 279 278 278 279 281 285 288 290 290 288 285 281 278 277 275 270 266 265 266 267 268 270 272 274 276 277
Height
3109 3110 3111 3112 3113 3114 3114 3114 3114 3115 3115 3116 3116 3116 3116 3116 3116 3116 3116 3116 3116 3116 3116 3116 3117 3117 3117 3118 3118 3119 3119 3119 3120 3120 3120 3120 3120 3120 3121 3121 3121 3122
3109 3110 3111 3112 3113 3114 3114 3114 3115 3115 3115 3116 3116 3117 3117 3117 3117 3117 3117 3117 3117 3117 3117 3117 3117 3118 3118 3118 3119 3119 3120 3120 3120 3120 3120 3120 3120 3120 3120 3120 3120 3121
3108 3109 3111 3112 3113 3113 3114 3114 3114 3115 3115 3115 3115 3116 3117 3117 3117 3118 3118 3118 3118 3118 3118 3118 3118 3118 3119 3119 3119 3120 3120 3120 3121 3121 3121 3121 3121 3121 3121 3120 3120 3120
3108 3109 3110 3112 3112 3113 3113 3113 3113 3114 3114 3115 3115 3115 3116 3117 3117 3117 3118 3118 3118 3119 3119 3119 3119 3119 3120 3120 3120 3120 3120 3121 3121 3121 3121 3121 3121 3121 3121 3121 3120 3120
3107 3108 3109 3111 3111 3111 3112 3112 3113 3113 3113 3114 3114 3114 3115 3116 3116 3116 3117 3118 3118 3119 3119 3119 3119 3120 3120 3120 3120 3121 3121 3121 3121 3120 3120 3120 3120 3121 3120 3120 3120 3120
3106 3107 3108 3109 3109 3109 3110 3111 3112 3112 3112 3112 3113 3113 3114 3115 3115 3116 3116 3117 3117 3118 3119 3119 3120 3120 3120 3120 3120 3120 3120 3120 3120 3120 3120 3120 3120 3120 3120 3120 3120 3120
3104 3105 3105 3106 3108 3108 3108 3109 3111 3112 3112 3112 3112 3112 3112 3113 3114 3115 3115 3116 3116 3116 3117 3118 3119 3119 3119 3119 3120 3120 3120 3120 3120 3120 3120 3120 3120 3120 3120 3120 3120 3120
3102 3103 3103 3105 3107 3107 3107 3108 3109 3110 3110 3110 3111 3111 3110 3111 3112 3113 3113 3114 3115 3115 3116 3116 3117 3118 3118 3119 3119 3119 3119 3119 3119 3119 3119 3119 3119 3119 3119 3118 3118 3118
3099 3101 3102 3104 3104 3105 3106 3107 3107 3108 3108 3108 3108 3109 3109 3109 3110 3111 3111 3112 3113 3114 3114 3115 3115 3116 3116 3117 3117 3117 3117 3117 3117 3117 3117 3117 3117 3117 3117 3117 3116 3116
3096 3098 3099 3101 3102 3102 3103 3104 3104 3104 3104 3105 3106 3107 3108 3108 3108 3109 3109 3109 3110 3111 3112 3112 3113 3113 3114 3115 3115 3115 3116 3116 3116 3115 3115 3115 3115 3115 3115 3115 3115 3114
3094 3095 3097 3098 3100 3100 3100 3101 3101 3100 3099 3101 3103 3105 3106 3106 3106 3106 3106 3106 3107 3108 3109 3109 3110 3111 3112 3113 3113 3113 3113 3114 3114 3113 3113 3113 3113 3113 3112 3112 3112 3112
3093 3094 3095 3097 3098 3098 3098 3099 3099 3100 3100 3101 3102 3102 3103 3105 3105 3104 3104 3104 3104 3104 3105 3106 3107 3108 3109 3110 3110 3111 3111 3111 3111 3111 3111 3111 3110 3110 3110 3110 3110 3109
3091 3092 3094 3095 3095 3095 3095 3095 3096 3097 3098 3100 3101 3100 3101 3101 3100 3100 3101 3102 3103 3103 3103 3104 3105 3105 3106 3107 3107 3108 3108 3108 3108 3108 3108 3108 3108 3108 3108 3108 3108 3107
3088 3089 3091 3092 3092 3093 3093 3093 3093 3094 3094 3095 3097 3098 3098 3098 3098 3099 3100 3101 3102 3102 3102 3102 3102 3103 3103 3104 3104 3105 3105 3105 3105 3105 3105 3106 3106 3105 3105 3105 3106 3105
3084 3085 3087 3088 3089 3090 3090 3090 3091 3092 3092 3092 3093 3095 3096 3096 3096 3098 3099 3099 3100 3100 3100 3100 3100 3100 3101 3101 3101 3101 3101 3101 3101 3102 3102 3102 3102 3102 3102 3102 3103 3102
3081 3082 3083 3084 3085 3086 3087 3088 3088 3089 3089 3090 3090 3091 3092 3092 3092 3093 3094 3095 3096 3097 3097 3097 3097 3098 3099 3099 3098 3097 3097 3097 3097 3098 3098 3098 3098 3099 3098 3098 3099 3099
3080 3081 3081 3081 3083 3084 3085 3085 3086 3086 3087 3087 3088 3089 3089 3090 3090 3090 3090 3091 3093 3093 3093 3093 3093 3094 3095 3095 3095 3094 3093 3093 3093 3093 3093 3093 3094 3095 3094 3094 3095 3094
3078 3079 3079 3080 3081 3082 3082 3083 3084 3084 3085 3085 3086 3087 3087 3087 3088 3087 3088 3088 3088 3089 3089 3088 3089 3090 3091 3091 3091 3090 3089 3089 3089 3089 3089 3089 3089 3089 3089 3089 3090 3090
3075 3076 3077 3078 3078 3079 3080 3081 3081 3082 3083 3083 3084 3084 3085 3085 3085 3085 3085 3085 3084 3084 3084 3083 3084 3086 3086 3087 3087 3086 3086 3085 3084 3085 3085 3084 3084 3084 3084 3085 3085 3084
3072 3073 3074 3074 3075 3076 3076 3077 3078 3078 3079 3080 3080 3080 3081 3081 3082 3082 3082 3081 3080 3079 3080 3080 3081 3082 3082 3082 3082 3082 3082 3081 3081 3081 3081 3080 3080 3080 3080 3081 3080 3080
3068 3069 3070 3071 3071 3072 3073 3073 3074 3074 3075 3075 3076 3076 3076 3076 3077 3077 3078 3077 3075 3075 3076 3077 3078 3078 3078 3079 3078 3078 3078 3078 3078 3078 3077 3076 3077 3077 3076 3076 3076 3075
3065 3066 3067 3067 3068 3068 3069 3069 3070 3070 3071 3071 3072 3072 3072 3072 3072 3072 3072 3072 3071 3072 3072 3073 3074 3074 3074 3074 3073 3073 3075 3075 3074 3073 3072 3072 3073 3072 3071 3071 3071 3071
3061 3063 3063 3064 3065 3065 3065 3066 3067 3067 3067 3067 3068 3069 3069 3069 3068 3068 3067 3066 3067 3068 3069 3069 3070 3069 3069 3069 3068 3069 3070 3070 3069 3069 3068 3068 3068 3067 3067 3067 3067 3067
3057 3059 3060 3060 3061 3062 3062 3063 3063 3064 3064 3064 3064 3065 3065 3065 3065 3064 3063 3062 3063 3064 3065 3066 3065 3065 3065 3064 3064 3064 3065 3065 3064 3065 3064 3063 3063 3063 3063 3063 3063 3063
3053 3054 3055 3056 3057 3058 3059 3059 3060 3060 3060 3060 3061 3061 3061 3061 3061 3059 3058 3058 3060 3060 3061 3061 3061 3061 3060 3060 3060 3060 3060 3060 3060 3060 3059 3059 3059 3059 3058 3059 3059 3058
3049 3050 3050 3051 3052 3054 3055 3055 3056 3056 3057 3056 3056 3057 3057 3057 3056 3054 3054 3055 3056 3056 3057 3057 3057 3056 3056 3056 3056 3055 3055 3055 3055 3055 3055 3055 3055 3055 3055 3055 3054 3053